1512529200.57,42617,2.38,73134.8,-10.23,-11.07,-11.01,0,*60
1512529201.81,42618,2.38,73118.5,-10.23,-11.01,-11.07,0,*6F
1512529203.08,42619,2.38,73082.8,-10.23,-11.07,-11.07,0,*68
1512529204.38,42620,2.38,73054.5,-10.25,-11.07,-11.07,0,*64
1512529205.65,42621,2.38,73048.0,-10.23,-11.07,-11.07,0,*63
1512529206.91,42622,2.38,73054.0,-10.25,-11.07,-11.11,0,*61
1512529208.16,42623,2.38,73140.8,-10.23,-11.01,-11.07,0,*67
1512529209.4,42624,2.38,73092.5,-10.23,-11.07,-11.01,0,*60
1512529210.67,42625,2.38,73100.0,-10.23,-11.07,-11.07,0,*67
1512529211.91,42626,2.38,73106.3,-10.23,-11.07,-11.01,0,*62
1512529213.15,42627,2.38,73122.3,-10.23,-11.07,-11.01,0,*63
1512529214.45,42628,2.38,73116.5,-10.25,-11.07,-11.07,0,*6C
1512529215.67,42629,2.38,73114.5,-10.23,-11.01,-11.01,0,*6B
1512529216.93,42630,2.38,73114.0,-10.25,-11.07,-11.11,0,*62
1512529218.15,42631,2.38,73106.0,-10.23,-11.01,-11.01,0,*62
1512529219.39,42632,2.38,73108.0,-10.23,-11.01,-11.07,0,*67
1512529220.61,42633,2.38,73120.0,-10.23,-11.01,-11.01,0,*60
1512529221.85,42634,2.38,73122.5,-10.23,-11.07,-11.01,0,*61
1512529223.12,42635,2.38,73108.0,-10.25,-11.07,-11.01,0,*66
1512529224.37,42636,2.38,73110.8,-10.23,-11.01,-11.07,0,*63
1512529225.61,42637,2.38,73124.0,-10.23,-11.07,-11.01,0,*62
1512529226.85,42638,2.38,73116.0,-10.25,-11.11,-11.11,0,*6D
1512529228.11,42639,2.38,73082.5,-10.23,-11.07,-11.07,0,*6A
1512529229.35,42640,2.38,73100.0,-10.25,-11.11,-11.11,0,*62
1512529230.6,42641,2.38,73094.0,-10.23,-11.01,-11.07,0,*63
1512529231.83,42642,2.38,73102.3,-10.25,-11.11,-11.11,0,*60
1512529233.1,42643,2.38,73100.8,-10.25,-11.07,-11.11,0,*66
1512529234.34,42644,2.38,73100.8,-10.23,-11.11,-11.07,0,*67
1512529235.56,42645,2.38,73116.3,-10.23,-11.01,-11.01,0,*61
1512529236.8,42646,2.38,73128.8,-10.23,-11.07,-11.01,0,*64
1512529238.04,42647,2.38,73106.8,-10.25,-11.11,-11.11,0,*65
1512529239.26,42648,2.38,73140.3,-10.23,-11.01,-11.01,0,*6C
1512529240.52,42649,2.38,73136.5,-10.23,-11.07,-11.07,0,*6D
1512529241.79,42650,2.38,73146.3,-10.23,-11.07,-11.07,0,*65
1512529243.06,42651,2.38,73120.5,-10.23,-11.07,-11.07,0,*64
1512529244.3,42652,2.38,73146.3,-10.25,-11.11,-11.11,0,*61
1512529245.54,42653,2.38,73174.8,-10.23,-11.11,-11.07,0,*61
1512529246.75,42654,2.38,73170.8,-10.23,-11.15,-11.11,0,*65
1512529247.96,42655,2.38,73162.0,-10.23,-11.11,-11.01,0,*61
1512529249.2,42656,2.38,73036.8,-10.23,-11.11,-11.07,0,*64
1512529250.44,42657,2.38,73054.5,-10.25,-11.15,-11.11,0,*60
1512529251.68,42658,2.38,73092.3,-10.25,-11.15,-11.11,0,*6F
1512529252.92,42659,2.38,73146.8,-10.23,-11.11,-11.07,0,*6B
1512529254.16,42660,2.38,73138.3,-10.23,-11.11,-11.07,0,*61
1512529255.4,42661,2.38,73068.0,-10.23,-11.11,-11.07,0,*60
1512529256.64,42662,2.38,73074.5,-10.25,-11.15,-11.11,0,*66
1512529257.85,42663,2.38,73054.3,-10.23,-11.11,-11.11,0,*65
1512529259.08,42664,2.38,73060.8,-10.25,-11.15,-11.11,0,*60
1512529260.32,42665,2.38,73094.5,-10.25,-11.15,-11.11,0,*61
1512529261.59,42666,2.38,73152.5,-10.25,-11.11,-11.07,0,*61
1512529262.86,42667,2.38,73154.3,-10.23,-11.07,-11.07,0,*61
1512529264.13,42668,2.38,73102.8,-10.25,-11.11,-11.07,0,*6F
1512529265.36,42669,2.38,73204.0,-10.25,-11.11,-11.11,0,*69
1512529266.6,42670,2.38,73172.3,-10.25,-11.11,-11.11,0,*61
1512529267.84,42671,2.38,73148.0,-10.25,-11.11,-11.11,0,*60
1512529269.08,42672,2.38,73150.3,-10.25,-11.11,-11.11,0,*63
1512529270.31,42673,2.38,73102.3,-10.25,-11.11,-11.11,0,*62
1512529271.55,42674,2.38,73074.5,-10.25,-11.11,-11.15,0,*61
1512529272.79,42675,2.38,73084.5,-10.25,-11.15,-11.15,0,*64
1512529274.0,42676,2.38,73074.8,-10.27,-11.15,-11.15,0,*65
1512529275.24,42677,2.38,73082.0,-10.25,-11.15,-11.23,0,*63
1512529276.48,42678,2.38,73090.5,-10.25,-11.15,-11.15,0,*69
1512529277.72,42679,2.38,73072.3,-10.25,-11.15,-11.11,0,*6C
1512529278.96,42680,2.38,73086.8,-10.25,-11.15,-11.15,0,*6E
1512529280.19,42681,2.38,73080.5,-10.25,-11.15,-11.15,0,*6F
1512529281.43,42682,2.38,73112.5,-10.25,-11.15,-11.15,0,*6C
1512529282.64,42683,2.38,73108.8,-10.27,-11.15,-11.15,0,*6F
1512529283.85,42684,2.38,73102.0,-10.27,-11.11,-11.11,0,*68
1512529285.06,42685,2.38,73110.5,-10.27,-11.11,-11.11,0,*69
1512529286.28,42686,2.38,73074.3,-10.27,-11.11,-11.11,0,*6A
1512529287.49,42687,2.38,73040.8,-10.27,-11.11,-11.11,0,*6B
1512529288.7,42688,2.38,73098.0,-10.27,-11.11,-11.11,0,*64
1512529289.91,42689,2.38,73086.8,-10.27,-11.11,-11.11,0,*65
1512529291.15,42690,2.38,73084.8,-10.29,-11.15,-11.15,0,*63
1512529292.36,42691,2.38,73084.0,-10.27,-11.11,-11.11,0,*6C
1512529293.6,42692,2.38,73078.0,-10.29,-11.15,-11.15,0,*61
1512529294.81,42693,2.38,73092.3,-10.27,-11.11,-11.11,0,*6E
1512529296.05,42694,2.38,73102.8,-10.27,-11.07,-11.15,0,*6A
1512529297.29,42695,2.38,73096.8,-10.29,-11.15,-11.19,0,*6A
1512529298.53,42696,2.38,73096.3,-10.29,-11.15,-11.15,0,*65
1512529299.74,42697,2.38,73096.5,-10.27,-11.11,-11.11,0,*6A
1512529300.98,42698,2.38,73094.0,-10.29,-11.15,-11.15,0,*6B
1512529302.22,42699,2.38,73092.8,-10.29,-11.15,-11.15,0,*6A
1512529303.46,42700,2.38,73118.0,-10.29,-11.11,-11.15,0,*6F
1512529304.71,42701,2.38,73110.3,-10.29,-11.15,-11.15,0,*6A
1512529305.92,42702,2.38,73108.5,-10.27,-11.11,-11.11,0,*67
1512529307.16,42703,2.38,73106.0,-10.29,-11.15,-11.15,0,*68
1512529308.4,42704,2.38,73100.0,-10.29,-11.15,-11.11,0,*6B
1512529309.64,42705,2.38,73108.3,-10.29,-11.15,-11.15,0,*6E
1512529310.85,42706,2.38,73102.8,-10.27,-11.11,-11.11,0,*63
1512529312.09,42707,2.38,73108.5,-10.27,-11.07,-11.11,0,*65
1512529313.33,42708,2.38,73118.0,-10.29,-11.15,-11.11,0,*67
1512529314.54,42709,2.38,73118.0,-10.27,-11.11,-11.11,0,*6C
1512529315.81,42710,2.38,73124.3,-10.27,-11.07,-11.07,0,*64
1512529317.05,42711,2.38,73114.5,-10.27,-11.07,-11.11,0,*62
1512529318.32,42712,2.38,73124.8,-10.27,-11.07,-11.07,0,*66
1512529319.59,42713,2.38,73128.8,-10.27,-11.07,-11.07,0,*67
1512529320.83,42714,2.38,73130.0,-10.27,-11.07,-11.11,0,*67
1512529322.07,42715,2.38,73128.8,-10.29,-11.11,-11.11,0,*6F
1512529323.31,42716,2.38,73112.3,-10.27,-11.11,-11.07,0,*65
1512529324.55,42717,2.38,73122.8,-10.27,-11.07,-11.11,0,*64
1512529325.76,42718,2.38,73108.3,-10.27,-11.11,-10.97,0,*63
1512529327.03,42719,2.38,73116.3,-10.27,-11.07,-11.07,0,*6D
1512529328.3,42720,2.38,73130.0,-10.27,-11.07,-11.07,0,*67
1512529329.54,42721,2.38,73156.3,-10.29,-11.15,-11.11,0,*6C
1512529330.78,42722,2.38,73134.0,-10.29,-11.11,-11.11,0,*6B
1512529331.99,42723,2.38,73122.5,-10.27,-11.11,-11.11,0,*64
1512529333.2,42724,2.38,73108.3,-10.27,-11.11,-11.11,0,*63
1512529334.41,42725,2.38,73110.3,-10.27,-11.11,-11.11,0,*62
1512529335.65,42726,2.38,73134.8,-10.27,-11.07,-11.11,0,*66
1512529336.86,42727,2.38,73140.3,-10.27,-11.19,-11.19,0,*60
1512529338.07,42728,2.38,73134.3,-10.27,-11.19,-11.19,0,*6F
1512529339.31,42729,2.38,73140.3,-10.29,-11.19,-11.15,0,*6C
1512529340.54,42730,2.38,73142.5,-10.29,-11.19,-11.11,0,*60
1512529341.78,42731,2.38,73150.8,-10.27,-11.07,-11.11,0,*60
1512529343.02,42732,2.38,73138.8,-10.29,-11.15,-11.15,0,*6A
1512529344.23,42733,2.38,73116.8,-10.27,-11.11,-11.11,0,*65
1512529345.45,42734,2.38,73110.3,-10.27,-11.11,-11.15,0,*66
1512529346.66,42735,2.38,73116.0,-10.27,-11.11,-11.15,0,*67
1512529347.9,42736,2.38,73150.0,-10.29,-11.15,-11.19,0,*62
1512529349.13,42737,2.38,73138.5,-10.29,-11.19,-11.19,0,*6F
1512529350.37,42738,2.38,73120.5,-10.29,-11.19,-11.15,0,*6C
1512529351.58,42739,2.38,73118.0,-10.27,-11.19,-11.19,0,*6F
1512529352.81,42740,2.38,73128.3,-10.29,-11.19,-11.15,0,*63
1512529354.05,42741,2.38,73126.0,-10.29,-11.19,-11.11,0,*66
1512529355.29,42742,2.38,73144.3,-10.29,-11.15,-11.15,0,*6D
1512529356.53,42743,2.38,73154.3,-10.29,-11.15,-11.15,0,*6C
1512529357.74,42744,2.38,73150.5,-10.27,-11.11,-11.11,0,*65
1512529358.98,42745,2.38,73150.3,-10.27,-11.07,-11.11,0,*63
1512529360.22,42746,2.38,73136.3,-10.27,-11.11,-11.07,0,*60
1512529361.49,42747,2.38,73104.0,-10.27,-11.07,-11.07,0,*66
1512529362.7,42748,2.38,73096.5,-10.27,-11.11,-11.11,0,*69
1512529363.94,42749,2.38,73102.0,-10.29,-11.15,-11.11,0,*62
1512529365.18,42750,2.38,73086.3,-10.27,-11.11,-11.07,0,*67
1512529366.42,42751,2.38,73120.3,-10.27,-11.11,-11.07,0,*66
1512529367.66,42752,2.38,73120.3,-10.27,-11.11,-11.07,0,*65
1512529368.91,42753,2.38,73080.5,-10.29,-11.01,-11.15,0,*68
1512529370.15,42754,2.38,73106.3,-10.29,-11.11,-11.11,0,*6A
1512529371.4,42755,2.38,73096.3,-10.27,-10.97,-11.07,0,*6D
1512529372.64,42756,2.38,73108.8,-10.29,-11.11,-11.11,0,*68
1512529373.91,42757,2.38,73116.0,-10.27,-11.07,-11.07,0,*67
1512529375.15,42758,2.38,73120.0,-10.29,-11.11,-10.97,0,*69
1512529376.39,42759,2.38,73130.0,-10.29,-11.11,-11.11,0,*67
1512529377.66,42760,2.38,73156.3,-10.27,-11.07,-11.07,0,*63
1512529378.93,42761,2.38,73166.3,-10.27,-11.07,-11.07,0,*62
1512529380.15,42762,2.38,73140.3,-10.27,-10.97,-10.97,0,*61
1512529381.4,42763,2.38,73132.5,-10.27,-11.07,-10.97,0,*68
1512529382.64,42764,2.38,73154.3,-10.29,-11.01,-11.15,0,*6C
1512529383.89,42765,2.38,73128.5,-10.29,-11.11,-11.15,0,*6C
1512529385.12,42766,2.38,73116.8,-10.29,-11.11,-11.11,0,*6B
1512529386.34,42767,2.38,73092.3,-10.27,-11.11,-11.11,0,*64
1512529387.55,42768,2.38,73088.0,-10.27,-11.15,-11.15,0,*6B
1512529388.79,42769,2.38,73090.3,-10.29,-11.11,-11.15,0,*60
1512529390.0,42770,2.38,73112.5,-10.27,-11.11,-11.11,0,*62
1512529391.24,42771,2.38,73140.0,-10.29,-11.15,-11.11,0,*69
1512529392.51,42772,2.38,73142.8,-10.27,-11.07,-11.07,0,*60
1512529393.75,42773,2.38,73150.8,-10.29,-11.11,-11.01,0,*6E
1512529395.05,42774,2.38,73144.3,-10.29,-11.07,-11.07,0,*68
1512529396.3,42775,2.38,73140.0,-10.27,-10.97,-11.07,0,*6F
1512529397.54,42776,2.38,73140.5,-10.27,-10.97,-11.07,0,*6C
1512529398.79,42777,2.38,73132.8,-10.27,-11.07,-10.97,0,*6D
1512529400.03,42778,2.38,73130.0,-10.29,-11.11,-11.01,0,*65
1512529401.27,42779,2.38,73130.3,-10.27,-11.07,-10.97,0,*63
1512529402.51,42780,2.38,73128.3,-10.29,-11.11,-11.11,0,*63
1512529403.78,42781,2.38,73122.8,-10.27,-11.07,-11.07,0,*6C
1512529405.05,42782,2.38,73110.3,-10.27,-11.07,-11.07,0,*6F
1512529406.29,42783,2.38,73112.8,-10.27,-11.07,-11.11,0,*69
1512529407.53,42784,2.38,73142.8,-10.29,-11.11,-11.15,0,*63
1512529408.77,42785,2.38,73146.0,-10.27,-11.11,-11.07,0,*6F
1512529409.98,42786,2.38,73114.8,-10.27,-11.11,-11.11,0,*6B
1512529411.22,42787,2.38,73100.5,-10.27,-11.07,-11.11,0,*6D
1512529412.49,42788,2.38,73110.3,-10.27,-11.07,-11.07,0,*65
1512529413.76,42789,2.38,73146.5,-10.27,-11.07,-11.07,0,*64
1512529415.01,42790,2.38,73166.0,-10.27,-11.07,-10.97,0,*64
1512529416.22,42791,2.38,73150.5,-10.27,-11.11,-11.01,0,*6C
1512529417.44,42792,2.38,73120.3,-10.27,-10.97,-10.97,0,*6E
1512529418.68,42793,2.38,73142.0,-10.27,-11.07,-10.93,0,*63
1512529419.93,42794,2.38,73148.0,-10.29,-11.01,-11.01,0,*66
1512529421.2,42795,2.38,73134.5,-10.27,-11.07,-11.07,0,*69
1512529422.47,42796,2.38,73136.3,-10.27,-11.07,-11.07,0,*6A
1512529423.71,42797,2.38,73156.3,-10.27,-11.07,-11.11,0,*6C
1512529424.95,42798,2.38,73146.0,-10.27,-11.07,-11.11,0,*63
1512529426.19,42799,2.38,73124.3,-10.29,-11.11,-11.15,0,*6F
1512529427.43,42800,2.38,73142.3,-10.29,-11.15,-11.11,0,*60
1512529428.67,42801,2.38,73178.0,-10.29,-11.15,-11.15,0,*65
1512529429.91,42802,2.38,73162.8,-10.27,-11.11,-11.07,0,*6F
1512529431.18,42803,2.38,73156.0,-10.25,-11.11,-11.07,0,*6C
1512529432.42,42804,2.38,73196.0,-10.27,-11.11,-11.07,0,*69
1512529433.66,42805,2.38,73158.3,-10.29,-11.15,-11.11,0,*65
1512529434.9,42806,2.38,73154.3,-10.27,-11.07,-11.11,0,*6B
1512529436.11,42807,2.38,73160.8,-10.27,-11.11,-11.11,0,*6D
1512529437.32,42808,2.38,73198.5,-10.27,-11.11,-11.15,0,*66
1512529438.57,42809,2.38,73182.3,-10.27,-10.97,-11.07,0,*6B
1512529439.84,42810,2.38,73150.8,-10.27,-11.07,-11.07,0,*6B
1512529441.08,42811,2.38,73126.8,-10.27,-11.11,-11.07,0,*6D
1512529442.35,42812,2.38,73090.8,-10.27,-11.07,-11.07,0,*69
1512529443.58,42813,2.38,73092.8,-10.27,-11.11,-11.07,0,*6F
1512529444.85,42814,2.38,73112.8,-10.27,-11.07,-11.07,0,*6F
1512529446.09,42815,2.38,73096.0,-10.25,-11.11,-11.11,0,*6C
1512529447.36,42816,2.38,73100.0,-10.27,-11.07,-11.07,0,*6D
1512529448.6,42817,2.38,73238.3,-10.27,-11.11,-11.07,0,*6B
1512529449.84,42818,2.38,73250.8,-10.27,-11.11,-11.07,0,*64
1512529451.08,42819,2.38,73212.5,-10.29,-11.11,-11.01,0,*6D
1512529452.3,42820,2.38,73204.8,-10.27,-11.11,-10.97,0,*67
1512529453.54,42821,2.38,73188.0,-10.27,-11.07,-10.97,0,*61
1512529454.79,42822,2.38,73210.5,-10.27,-11.07,-10.97,0,*62
1512529456.01,42823,2.38,73214.8,-10.27,-10.97,-10.97,0,*6B
1512529457.23,42824,2.38,73200.0,-10.27,-10.93,-10.97,0,*68
1512529458.46,42825,2.38,73194.0,-10.27,-10.97,-10.97,0,*6D
1512529459.68,42826,2.38,73208.5,-10.27,-10.97,-10.97,0,*6E
1512529460.92,42827,2.38,73182.5,-10.27,-11.07,-10.97,0,*67
1512529462.19,42828,2.38,73182.3,-10.25,-11.11,-11.07,0,*65
1512529463.46,42829,2.38,73184.3,-10.27,-11.07,-11.07,0,*61
1512529464.7,42830,2.38,73194.3,-10.29,-11.01,-11.11,0,*66
1512529465.97,42831,2.38,73162.3,-10.27,-11.07,-11.07,0,*68
1512529467.24,42832,2.38,73142.3,-10.27,-11.07,-11.07,0,*6B
1512529468.51,42833,2.38,73154.3,-10.27,-11.07,-11.07,0,*6A
1512529469.72,42834,2.38,73148.0,-10.27,-11.11,-11.11,0,*6D
1512529470.96,42835,2.38,73146.3,-10.29,-11.15,-11.15,0,*62
1512529472.18,42836,2.38,73158.8,-10.27,-11.11,-10.97,0,*60
1512529473.42,42837,2.38,73148.0,-10.27,-11.11,-11.07,0,*69
1512529474.66,42838,2.38,73052.3,-10.27,-11.11,-11.07,0,*66
1512529475.87,42839,2.38,73026.8,-10.27,-11.11,-11.11,0,*60
1512529477.11,42840,2.38,73042.8,-10.29,-11.15,-11.15,0,*60
1512529478.32,42841,2.38,73146.0,-10.27,-11.11,-11.11,0,*6F
1512529479.53,42842,2.38,73164.5,-10.27,-11.11,-11.11,0,*6C
1512529480.77,42843,2.38,73166.8,-10.29,-11.15,-11.15,0,*63
1512529482.02,42844,2.38,73158.0,-10.29,-11.15,-11.15,0,*64
1512529483.26,42845,2.38,73138.3,-10.29,-11.15,-11.15,0,*65
1512529484.53,42846,2.38,73176.3,-10.27,-11.07,-11.07,0,*68
1512529485.74,42847,2.38,73166.8,-10.27,-11.11,-11.15,0,*6D
1512529486.98,42848,2.38,73172.5,-10.29,-11.11,-11.15,0,*6C
1512529488.25,42849,2.38,73172.0,-10.27,-11.07,-11.07,0,*67
1512529489.46,42850,2.38,73170.0,-10.27,-11.11,-11.11,0,*6F
1512529490.7,42851,2.38,73176.5,-10.29,-11.11,-11.11,0,*60
1512529491.94,42852,2.38,73160.5,-10.27,-11.11,-11.07,0,*6A
1512529493.18,42853,2.38,73172.0,-10.29,-11.15,-11.11,0,*66
1512529494.42,42854,2.38,73158.3,-10.29,-11.15,-11.15,0,*65
1512529495.66,42855,2.38,73148.0,-10.27,-11.11,-11.07,0,*6D
1512529496.87,42856,2.38,73132.0,-10.27,-11.11,-11.11,0,*69
1512529498.11,42857,2.38,73138.3,-10.29,-11.11,-11.11,0,*66
1512529499.35,42858,2.38,73132.5,-10.29,-11.15,-11.15,0,*69
1512529500.59,42859,2.38,73142.5,-10.29,-11.15,-11.15,0,*68
1512529501.8,42860,2.38,73144.3,-10.27,-11.11,-11.11,0,*6C
1512529503.05,42861,2.38,73144.0,-10.27,-10.97,-11.07,0,*65
1512529504.32,42862,2.38,73144.5,-10.27,-11.07,-11.07,0,*6E
1512529505.56,42863,2.38,73146.8,-10.29,-11.11,-11.11,0,*61
1512529506.8,42864,2.38,73138.3,-10.29,-11.11,-11.11,0,*66
1512529508.07,42865,2.38,73138.5,-10.27,-11.07,-11.07,0,*69
1512529509.31,42866,2.38,73146.8,-10.29,-11.11,-11.01,0,*65
1512529510.55,42867,2.38,73160.8,-10.29,-11.11,-11.11,0,*65
1512529511.79,42868,2.38,73178.3,-10.29,-11.11,-11.11,0,*6A
1512529513.03,42869,2.38,73194.0,-10.29,-11.11,-11.01,0,*6A
1512529514.28,42870,2.38,73164.0,-10.27,-11.07,-10.97,0,*65
1512529515.52,42871,2.38,73168.8,-10.29,-11.11,-11.01,0,*63
1512529516.76,42872,2.38,73174.0,-10.29,-11.11,-11.01,0,*60
1512529518.03,42873,2.38,73170.3,-10.27,-11.07,-11.07,0,*6E
1512529519.3,42874,2.38,73164.0,-10.27,-11.07,-11.07,0,*69
1512529520.55,42875,2.38,73132.8,-10.29,-11.01,-11.01,0,*66
1512529521.76,42876,2.38,73186.3,-10.27,-11.11,-10.97,0,*64
1512529523.0,42877,2.38,73124.5,-10.29,-11.11,-11.11,0,*64
1512529524.24,42878,2.38,73096.5,-10.29,-11.15,-11.11,0,*6F
1512529525.48,42879,2.38,73064.5,-10.29,-11.11,-11.15,0,*6E
1512529526.75,42880,2.38,73056.5,-10.27,-11.07,-11.07,0,*62
1512529527.99,42881,2.38,73082.5,-10.29,-11.15,-11.11,0,*69
1512529529.26,42882,2.38,73090.3,-10.27,-11.07,-11.07,0,*60
1512529530.5,42883,2.38,73104.5,-10.29,-11.11,-11.11,0,*6F
1512529531.71,42884,2.38,73128.8,-10.27,-11.11,-11.11,0,*66
1512529532.95,42885,2.38,73138.8,-10.29,-11.11,-11.11,0,*69
1512529534.19,42886,2.38,73144.3,-10.27,-11.07,-11.11,0,*63
1512529535.44,42887,2.38,73148.3,-10.27,-11.07,-10.97,0,*6D
1512529536.68,42888,2.38,73148.0,-10.27,-10.97,-11.07,0,*62
1512529537.93,42889,2.38,73136.3,-10.29,-11.11,-11.11,0,*65
1512529539.2,42890,2.38,73126.3,-10.29,-11.11,-11.07,0,*6A
1512529540.46,42891,2.38,73086.8,-10.27,-11.07,-11.07,0,*62
1512529541.7,42892,2.38,73056.3,-10.29,-11.15,-11.11,0,*6B
1512529542.97,42893,2.38,73080.5,-10.27,-11.07,-11.07,0,*60
1512529544.21,42894,2.38,73090.0,-10.27,-11.11,-11.07,0,*60
1512529545.45,42895,2.38,73094.0,-10.27,-11.07,-11.11,0,*61
1512529546.69,42896,2.38,73096.3,-10.29,-11.15,-11.15,0,*6B
1512529547.94,42897,2.31,73102.3,-10.29,-11.15,-11.15,0,*6A
1512529549.18,42898,2.38,73108.5,-10.29,-11.15,-11.11,0,*61
1512529550.44,42899,2.38,73110.5,-10.27,-11.07,-11.07,0,*6A
1512529551.69,42900,2.38,73112.3,-10.29,-11.11,-11.11,0,*65
1512529552.93,42901,2.38,73106.8,-10.29,-11.11,-11.11,0,*64
1512529554.17,42902,2.38,73108.8,-10.29,-11.11,-11.11,0,*67
1512529555.38,42903,2.38,73112.5,-10.27,-11.11,-11.15,0,*6C
1512529556.62,42904,2.38,73112.0,-10.27,-11.11,-11.07,0,*68
1512529557.83,42905,2.38,73124.3,-10.27,-11.11,-11.15,0,*6A
1512529559.04,42906,2.38,73134.3,-10.27,-11.11,-11.15,0,*69
1512529560.31,42907,2.31,73126.8,-10.27,-11.07,-11.07,0,*6C
1512529561.55,42908,2.38,73142.5,-10.27,-11.11,-11.07,0,*64
1512529562.79,42909,2.38,73148.3,-10.27,-11.11,-11.07,0,*65
1512529564.03,42910,2.38,73138.8,-10.29,-11.11,-11.11,0,*64
1512529565.27,42911,2.38,73132.5,-10.29,-11.11,-11.15,0,*61
1512529566.51,42912,2.38,73140.5,-10.29,-11.15,-11.11,0,*62
1512529567.75,42913,2.38,73148.3,-10.29,-11.15,-11.15,0,*67
1512529568.99,42914,2.38,73144.5,-10.27,-11.07,-11.11,0,*69
1512529570.23,42915,2.38,73146.8,-10.29,-11.11,-11.11,0,*61
1512529571.47,42916,2.38,73134.8,-10.27,-11.07,-11.11,0,*6B
1512529572.68,42917,2.38,73140.3,-10.27,-11.11,-11.11,0,*6D
1512529573.92,42918,2.38,73122.3,-10.29,-11.15,-11.11,0,*68
1512529575.16,42919,2.38,73130.8,-10.29,-11.15,-11.15,0,*6D
1512529576.4,42920,2.38,73148.3,-10.29,-11.11,-11.15,0,*63
1512529577.65,42921,2.38,73136.0,-10.29,-11.15,-11.15,0,*66
1512529578.89,42922,2.38,73148.3,-10.29,-11.11,-11.15,0,*61
1512529580.13,42923,2.38,73116.8,-10.29,-11.11,-11.11,0,*64
1512529581.37,42924,2.38,73126.0,-10.29,-11.15,-11.15,0,*63
1512529582.61,42925,2.38,73136.8,-10.27,-11.11,-11.07,0,*6B
1512529583.85,42926,2.38,73140.8,-10.29,-11.15,-11.15,0,*61
1512529585.09,42927,2.38,73158.8,-10.29,-11.15,-11.15,0,*60
1512529586.33,42928,2.38,73174.5,-10.29,-11.15,-11.15,0,*6F
1512529587.57,42929,2.38,73164.3,-10.29,-11.11,-11.15,0,*6A
1512529588.78,42930,2.38,73168.0,-10.27,-11.11,-11.15,0,*6C
1512529590.02,42931,2.38,73166.0,-10.29,-11.15,-11.15,0,*67
1512529591.23,42932,2.38,73164.5,-10.27,-11.11,-11.11,0,*6A
1512529592.47,42933,2.38,73158.0,-10.29,-11.15,-11.11,0,*61
1512529593.71,42934,2.38,73142.5,-10.29,-11.15,-11.11,0,*66
1512529594.95,42935,2.38,73156.3,-10.29,-11.11,-11.11,0,*63
1512529596.22,42936,2.38,73164.5,-10.27,-11.07,-11.07,0,*6E
1512529597.47,42937,2.38,73150.3,-10.29,-11.15,-11.15,0,*61
1512529598.71,42938,2.38,73154.5,-10.27,-11.11,-11.07,0,*67
1512529599.95,42939,2.38,73150.3,-10.29,-11.11,-11.15,0,*6B
1512529601.19,42940,2.38,73154.0,-10.27,-11.07,-11.11,0,*68
1512529602.43,42941,2.38,73150.8,-10.29,-11.15,-11.11,0,*64
1512529603.67,42942,2.38,73128.8,-10.29,-11.15,-11.15,0,*63
1512529604.91,42943,2.38,73140.8,-10.29,-11.15,-11.15,0,*62
1512529606.12,42944,2.38,73138.8,-10.31,-11.11,-11.15,0,*68
1512529607.36,42945,2.38,73146.0,-10.29,-11.11,-11.15,0,*60
1512529608.6,42946,2.38,73106.3,-10.29,-11.11,-11.11,0,*67
1512529609.84,42947,2.38,73046.5,-10.29,-11.11,-11.15,0,*62
1512529611.11,42948,2.38,73058.0,-10.27,-11.07,-11.07,0,*67
1512529612.35,42949,2.38,73052.5,-10.29,-11.15,-11.15,0,*68
1512529613.59,42950,2.38,73076.3,-10.29,-11.15,-11.15,0,*60
1512529614.83,42951,2.38,73090.0,-10.29,-11.15,-11.15,0,*61
1512529616.04,42952,2.38,73096.8,-10.31,-11.11,-11.15,0,*6F
1512529617.28,42953,2.38,73106.5,-10.29,-11.11,-11.11,0,*63
1512529618.52,42954,2.38,73128.0,-10.29,-11.15,-11.11,0,*60
1512529619.74,42955,2.38,73172.5,-10.31,-11.15,-11.11,0,*68
1512529620.98,42956,2.38,73164.0,-10.29,-11.15,-11.11,0,*62
1512529622.22,42957,2.38,73150.5,-10.29,-11.11,-11.11,0,*67
1512529623.46,42958,2.38,73162.8,-10.29,-11.11,-11.11,0,*68
1512529624.7,42959,2.38,73168.0,-10.29,-11.11,-11.11,0,*69
1512529625.94,42960,2.38,73164.5,-10.29,-11.11,-11.01,0,*62
1512529627.19,42961,2.38,73170.0,-10.29,-11.01,-11.01,0,*62
1512529628.44,42962,2.38,73174.0,-10.29,-11.01,-10.97,0,*6F
1512529629.69,42963,2.38,73172.5,-10.29,-11.01,-11.01,0,*60
1512529630.94,42964,2.38,73158.0,-10.29,-10.97,-10.97,0,*67
1512529632.18,42965,2.38,73148.8,-10.29,-11.01,-11.01,0,*66
1512529633.43,42966,2.38,73162.3,-10.29,-10.97,-11.01,0,*6B
1512529634.68,42967,2.38,73154.8,-10.29,-11.01,-11.01,0,*64
1512529635.9,42968,2.38,73148.0,-10.27,-10.97,-10.97,0,*65
1512529637.16,42969,2.38,73132.5,-10.29,-10.97,-10.97,0,*6A
1512529638.4,42970,2.38,73114.5,-10.29,-11.01,-11.01,0,*62
1512529639.62,42971,2.38,73120.3,-10.27,-10.97,-10.97,0,*6D
1512529640.84,42972,2.38,73108.0,-10.27,-10.93,-10.97,0,*6A
1512529642.06,42973,2.38,73106.8,-10.27,-10.97,-10.93,0,*6B
1512529643.31,42974,2.38,73126.5,-10.29,-10.97,-11.01,0,*68
1512529644.53,42975,2.38,73138.5,-10.27,-10.93,-10.97,0,*6D
1512529645.75,42976,2.38,73140.0,-10.27,-10.93,-10.97,0,*6E
1512529646.97,42977,2.38,73140.5,-10.27,-10.97,-10.93,0,*6F
1512529648.22,42978,2.38,73138.3,-10.29,-10.97,-11.01,0,*64
1512529649.47,42979,2.38,73128.5,-10.29,-10.97,-11.01,0,*65
1512529650.69,42980,2.38,73134.3,-10.27,-10.97,-10.97,0,*63
1512529651.94,42981,2.38,73112.8,-10.29,-10.97,-10.97,0,*6C
1512529653.19,42982,2.38,73114.5,-10.29,-10.97,-11.01,0,*61
1512529654.4,42983,2.38,73132.3,-10.27,-10.93,-10.93,0,*60
1512529655.63,42984,2.38,73132.8,-10.27,-10.97,-10.97,0,*67
1512529656.85,42985,2.38,73114.5,-10.27,-10.93,-10.97,0,*62
1512529658.09,42986,2.38,73156.5,-10.29,-11.01,-11.01,0,*6B
1512529659.31,42987,2.38,73154.8,-10.27,-10.93,-10.93,0,*64
1512529660.52,42988,2.38,73162.3,-10.27,-10.93,-10.85,0,*6C
1512529661.74,42989,2.38,73170.8,-10.27,-10.97,-10.97,0,*6A
1512529662.96,42990,2.38,73182.5,-10.27,-10.93,-10.97,0,*66
1512529664.2,42991,2.38,73140.8,-10.27,-11.07,-10.93,0,*6F
1512529665.43,42992,2.38,73096.8,-10.27,-10.97,-10.97,0,*60
1512529666.65,42993,2.38,73092.0,-10.27,-10.97,-10.97,0,*61
1512529667.87,42994,2.38,73058.3,-10.27,-10.97,-10.97,0,*66
1512529669.09,42995,2.38,73144.3,-10.27,-10.97,-10.97,0,*67
1512529670.32,42996,2.38,73136.0,-10.27,-10.97,-10.97,0,*64
1512529671.56,42997,2.38,73154.3,-10.27,-10.97,-11.07,0,*6D
1512529672.81,42998,2.38,73114.5,-10.27,-10.97,-11.07,0,*62
1512529674.06,42999,2.38,73108.0,-10.29,-11.01,-10.97,0,*6B
1512529675.28,43000,2.38,73130.8,-10.27,-10.97,-10.93,0,*67
1512529676.53,43001,2.38,73104.8,-10.29,-11.01,-11.01,0,*6C
1512529677.77,43002,2.38,73106.3,-10.29,-11.01,-10.89,0,*6E
1512529679.0,43003,2.38,73146.5,-10.27,-10.97,-10.97,0,*60
1512529680.22,43004,2.38,73142.3,-10.27,-10.97,-10.97,0,*67
1512529681.43,43005,2.38,73176.8,-10.27,-10.93,-10.93,0,*66
1512529682.66,43006,2.38,73182.0,-10.27,-10.97,-10.97,0,*65
1512529683.88,43007,2.38,73144.3,-10.27,-10.97,-10.97,0,*64
1512529685.13,43008,2.38,73140.0,-10.29,-11.01,-11.01,0,*65
1512529686.38,43009,2.38,73134.5,-10.25,-10.97,-10.97,0,*68
1512529687.6,43010,2.38,73158.3,-10.27,-10.97,-10.97,0,*62
1512529688.82,43011,2.38,73172.3,-10.27,-10.97,-10.93,0,*67
1512529690.04,43012,2.38,73150.0,-10.27,-10.97,-10.97,0,*60
1512529691.28,43013,2.38,73132.3,-10.27,-10.93,-11.07,0,*6D
1512529692.54,43014,2.31,73134.8,-10.29,-10.97,-10.97,0,*68
1512529693.75,43015,2.38,73146.8,-10.27,-10.93,-10.93,0,*67
1512529695.0,43016,2.38,73144.8,-10.29,-10.97,-11.01,0,*64